Location: C�mpuri de-Sus
(45.9500°N, 22.5500°E)
Time: 13:17:34
(UTC+00:00)

NOSS 3-1 (A) - Pass Details

Date: 24 October 2021
Orbit: 721 x 1491 km, 63.4° (Epoch: 22 November)

Event Time Altitude Azimuth Distance (km) Brightness Sun altitude
Rises 15:59:43 0° 178° (S) 3,161 6.3 -6.1°
Reaches altitude 10° 16:02:20 10° 165° (SSE) 2,294 5.4 -6.6°
Maximum altitude 16:06:31 25° 111° (ESE) 1,610 4.2 -7.3°
Drops below altitude 10° 16:11:12 10° 58° (ENE) 2,592 5.2 -8.1°
Enters shadow 16:12:29 - 52° (NE) 3,021 5.5 -8.3°
